EA4BPO Weather Reports


Display with metric or nautical units.
time (UTC)temp
F
wind
direction
speed
MPH
gust
MPH
rain 1hr
in
rain 24hr
in
rain mn
in
humidity
%
barometer
mb
20260505041503 52 275 2.0 6.0 0.00 0.00 0.00 67 1012.1
20260505041003 52 273 3.0 6.0 0.00 0.00 0.00 67 1012.1
20260505040503 52 265 3.0 6.0 0.00 0.00 0.00 66 1012.2
20260505040004 52 256 2.0 4.0 0.00 0.00 0.00 66 1012.0
20260505035503 52 257 3.0 6.0 0.00 0.00 0.00 65 1012.1
20260505035003 53 263 3.0 6.0 0.00 0.00 0.00 65 1012.3
20260505034503 53 266 3.0 4.0 0.00 0.00 0.00 64 1012.0
20260505034025 53 264 2.0 4.0 0.00 0.00 0.00 64 1012.1
20260505033503 53 259 2.0 3.0 0.00 0.00 0.00 64 1012.0
20260505033003 53 257 1.0 3.0 0.00 0.00 0.00 63 1012.0
20260505032503 53 267 0.0 3.0 0.00 0.00 0.00 63 1012.2
20260505032003 53 297 0.0 1.0 0.00 0.00 0.00 64 1012.1
20260505031524 53 345 0.0 2.0 0.00 0.00 0.00 64 1012.3
20260505031003 53 353 0.0 2.0 0.00 0.00 0.00 63 1012.1
20260505030503 53 273 1.0 6.0 0.00 0.00 0.00 63 1012.0
20260505030003 53 276 2.0 6.0 0.00 0.00 0.00 63 1012.1
20260505025503 53 287 1.0 6.0 0.00 0.00 0.00 63 1012.1
20260505025004 53 318 1.0 7.0 0.00 0.00 0.00 63 1012.0
20260505024503 53 298 1.0 7.0 0.00 0.00 0.00 63 1012.2
20260505024003 53 269 2.0 7.0 0.00 0.00 0.00 63 1012.3
20260505023524 53 287 4.0 10.0 0.00 0.00 0.00 63 1012.2
20260505023003 53 279 5.0 10.0 0.00 0.00 0.00 62 1012.3
20260505022524 53 264 6.0 11.0 0.00 0.00 0.00 62 1012.5
20260505022024 53 261 6.0 11.0 0.00 0.00 0.00 62 1012.2
20260505021503 53 271 4.0 9.0 0.00 0.00 0.00 62 1012.2
20260505021003 53 283 4.0 8.0 0.00 0.00 0.00 63 1012.3
20260505020503 53 274 4.0 8.0 0.00 0.00 0.00 62 1012.2
20260505020003 53 266 4.0 10.0 0.00 0.00 0.00 63 1012.5
20260505015503 53 263 5.0 13.0 0.00 0.00 0.00 63 1012.5
20260505015003 53 260 6.0 13.0 0.00 0.00 0.00 62 1012.5
20260505014525 53 265 5.0 11.0 0.00 0.00 0.00 62 1012.3
20260505014003 53 262 6.0 10.0 0.00 0.00 0.00 62 1012.6
20260505013503 53 262 6.0 14.0 0.00 0.00 0.00 62 1012.3
20260505013003 53 274 6.0 14.0 0.00 0.00 0.00 62 1012.5
20260505012503 53 272 6.0 10.0 0.00 0.00 0.00 62 1012.6
20260505012003 53 264 5.0 10.0 0.00 0.00 0.00 62 1012.8
20260505011503 53 270 5.0 13.0 0.00 0.00 0.00 62 1012.6
20260505011003 54 261 6.0 13.0 0.00 0.00 0.00 61 1012.7
20260505010503 54 264 6.0 14.0 0.00 0.00 0.00 61 1012.6
20260505010004 54 276 7.0 14.0 0.00 0.00 0.00 61 1012.7
20260505005506 54 271 6.0 11.0 0.00 0.00 0.00 60 1012.6
20260505005004 54 267 6.0 11.0 0.00 0.00 0.00 60 1012.8
20260505004504 54 270 6.0 11.0 0.00 0.00 0.00 60 1012.7
20260505004003 54 270 7.0 18.0 0.00 0.00 0.00 61 1012.8
20260505003503 54 268 8.0 18.0 0.00 0.00 0.00 60 1012.8
20260505003003 54 272 7.0 14.0 0.00 0.00 0.00 61 1012.9
20260505002503 54 272 7.0 14.0 0.00 0.00 0.00 61 1012.8
20260505002003 55 270 7.0 13.0 0.00 0.00 0.00 61 1012.8
20260505001524 55 273 6.0 13.0 0.00 0.00 0.00 61 1012.9
20260505001003 55 270 6.0 13.0 0.00 0.00 0.00 61 1013.1
20260505000503 55 264 6.0 13.0 0.00 0.00 0.00 60 1012.7
20260505000003 55 262 7.0 14.0 0.00 0.00 0.00 60 1013.0
20260504235503 55 269 7.0 14.0 0.00 0.00 0.00 60 1012.7
20260504235003 55 272 6.0 13.0 0.00 0.00 0.00 59 1012.8
20260504234503 55 265 5.0 10.0 0.00 0.00 0.00 59 1012.7
20260504234024 55 269 6.0 11.0 0.00 0.00 0.00 59 1012.9
20260504233503 55 276 7.0 11.0 0.00 0.00 0.00 59 1012.8
20260504233003 55 271 7.0 13.0 0.00 0.00 0.00 59 1012.8
20260504232503 55 267 7.0 13.0 0.00 0.00 0.00 59 1013.0
20260504232003 55 264 6.0 13.0 0.00 0.00 0.00 60 1012.9
20260504231503 55 255 6.0 11.0 0.00 0.00 0.00 60 1013.0
20260504231003 55 256 6.0 11.0 0.00 0.00 0.00 61 1012.9
20260504230524 56 257 5.0 9.0 0.00 0.00 0.00 61 1012.8
20260504230003 56 255 6.0 10.0 0.00 0.00 0.00 61 1012.7
20260504225503 56 254 6.0 10.0 0.00 0.00 0.00 60 1012.7
20260504225003 56 254 5.0 9.0 0.00 0.00 0.00 60 1012.8
20260504224524 56 249 6.0 10.0 0.00 0.00 0.00 60 1012.7
20260504224003 56 250 6.0 10.0 0.00 0.00 0.00 60 1012.9
20260504223503 56 257 6.0 9.0 0.00 0.00 0.00 60 1012.7
20260504223003 56 255 5.0 9.0 0.00 0.00 0.00 59 1012.9
20260504222524 56 260 5.0 9.0 0.00 0.00 0.00 59 1012.9
20260504222003 56 263 5.0 10.0 0.00 0.00 0.00 59 1012.8
20260504221503 56 257 6.0 10.0 0.00 0.00 0.00 59 1012.9
20260504221003 57 258 5.0 9.0 0.00 0.00 0.00 58 1012.8
20260504220503 57 261 4.0 8.0 0.00 0.00 0.00 58 1013.0
20260504220025 57 266 5.0 9.0 0.00 0.36 0.00 58 1013.0
20260504215503 57 263 6.0 11.0 0.00 0.36 0.00 59 1013.0
20260504215003 57 260 5.0 11.0 0.00 0.36 0.00 58 1013.1
20260504214503 57 258 4.0 9.0 0.00 0.36 0.00 57 1013.1
20260504214003 57 259 4.0 8.0 0.00 0.36 0.00 58 1013.1
20260504213503 57 259 4.0 7.0 0.00 0.36 0.00 58 1013.0
20260504213024 57 260 4.0 7.0 0.00 0.36 0.00 58 1013.0
20260504212503 57 260 4.0 7.0 0.00 0.36 0.00 57 1013.1
20260504212003 57 259 4.0 7.0 0.00 0.36 0.00 57 1013.0
20260504211503 57 255 5.0 13.0 0.00 0.36 0.00 58 1013.3
20260504211003 58 251 5.0 13.0 0.00 0.36 0.00 57 1013.2
20260504210503 58 252 4.0 8.0 0.00 0.36 0.00 56 1013.1
20260504210004 58 259 4.0 8.0 0.00 0.36 0.00 56 1013.1
20260504205503 58 265 3.0 7.0 0.00 0.36 0.00 56 1013.2
20260504205003 58 264 3.0 7.0 0.00 0.36 0.00 56 1013.1
20260504204503 58 261 2.0 7.0 0.00 0.36 0.00 56 1013.0
20260504204003 58 263 2.0 9.0 0.00 0.36 0.00 57 1013.0
20260504203503 58 263 4.0 9.0 0.00 0.36 0.00 58 1012.9
20260504203024 58 262 4.0 10.0 0.00 0.36 0.00 58 1012.8
20260504202503 58 260 5.0 10.0 0.00 0.36 0.00 58 1012.8
20260504202003 58 261 4.0 10.0 0.00 0.36 0.00 59 1012.9
20260504201503 58 264 4.0 9.0 0.00 0.36 0.00 59 1012.8
20260504201003 58 267 5.0 10.0 0.00 0.36 0.00 59 1012.9
20260504200503 58 273 5.0 10.0 0.00 0.36 0.00 58 1012.6
20260504200003 58 278 6.0 10.0 0.00 0.36 0.00 57 1012.9
20260504195503 58 272 6.0 11.0 0.00 0.36 0.00 57 1012.3
20260504195024 58 264 5.0 11.0 0.00 0.36 0.00 57 1012.5
20260504194503 58 262 5.0 10.0 0.00 0.36 0.00 57 1012.2
20260504194024 58 265 5.0 10.0 0.00 0.36 0.00 58 1012.2
20260504193524 59 268 5.0 10.0 0.00 0.36 0.00 58 1012.2
20260504193003 59 265 5.0 9.0 0.00 0.36 0.00 58 1012.1
20260504192503 59 266 5.0 8.0 0.00 0.36 0.00 57 1011.8
20260504192003 59 266 5.0 9.0 0.00 0.36 0.00 57 1011.9
20260504191503 59 273 5.0 9.0 0.00 0.36 0.00 56 1011.9
20260504191003 59 268 4.0 10.0 0.00 0.36 0.00 56 1011.9
20260504190524 59 269 4.0 10.0 0.00 0.36 0.00 56 1011.6
20260504190003 59 273 4.0 10.0 0.00 0.36 0.00 56 1011.4
20260504185503 59 280 4.0 10.0 0.00 0.36 0.00 56 1011.6
20260504185003 59 289 6.0 14.0 0.00 0.36 0.00 56 1011.8
20260504184524 60 282 6.0 14.0 0.00 0.36 0.00 56 1011.6
20260504184003 60 278 5.0 14.0 0.00 0.36 0.00 56 1011.6
20260504183503 61 274 4.0 10.0 0.00 0.36 0.00 54 1011.7
20260504183024 61 272 5.0 13.0 0.00 0.36 0.00 54 1011.5
20260504182503 61 288 4.0 13.0 0.00 0.36 0.00 54 1011.6
20260504182024 62 310 4.0 10.0 0.00 0.36 0.00 54 1011.4
20260504181503 62 323 5.0 13.0 0.00 0.36 0.00 54 1011.3
20260504181003 62 320 5.0 13.0 0.00 0.36 0.00 53 1011.4
20260504180503 63 301 3.0 9.0 0.00 0.36 0.00 52 1011.3
20260504180003 63 328 4.0 11.0 0.00 0.36 0.00 53 1011.3
20260504175524 62 320 4.0 11.0 0.00 0.36 0.00 53 1011.1
20260504175003 62 288 4.0 10.0 0.00 0.36 0.00 53 1011.3
20260504174503 62 289 4.0 11.0 0.00 0.36 0.00 52 1011.1
20260504174003 62 314 4.0 11.0 0.00 0.36 0.00 52 1011.3
20260504173503 62 309 4.0 9.0 0.00 0.36 0.00 52 1011.1
20260504173003 62 280 5.0 10.0 0.00 0.36 0.00 53 1011.1
20260504172503 62 268 6.0 13.0 0.00 0.36 0.00 52 1011.2
20260504172024 62 262 7.0 13.0 0.00 0.36 0.00 52 1011.2
20260504171503 62 270 5.0 13.0 0.00 0.36 0.00 51 1011.3
20260504171003 63 265 5.0 13.0 0.00 0.36 0.00 51 1011.0
20260504170503 63 256 6.0 13.0 0.00 0.36 0.00 51 1011.3
20260504151024 65 230 11.0 23.0 0.00 0.36 0.00 39 1011.0
20260504150503 65 220 12.0 23.0 0.00 0.36 0.00 41 1011.2
20260504141024 64 223 10.0 22.0 0.00 0.36 0.00 44 1011.0
20260504140524 65 225 8.0 19.0 0.00 0.36 0.00 46 1011.2
20260504130503 64 245 11.0 21.0 0.00 0.36 0.00 48 1011.4
20260504110524 62 227 9.0 21.0 0.00 0.36 0.00 52 1012.5
20260504100503 59 227 7.0 15.0 0.00 0.36 0.00 63 1012.8
20260504082003 54 200 5.0 10.0 0.00 0.36 0.00 81 1013.0
20260504081503 54 198 4.0 10.0 0.00 0.36 0.00 81 1012.7
20260504081003 55 226 2.0 6.0 0.00 0.36 0.00 77 1012.7
20260504080503 54 224 2.0 6.0 0.00 0.36 0.00 78 1012.8
20260504050503 52 200 2.0 7.0 0.00 0.36 0.36 82 1011.3
20260504050003 52 206 2.0 6.0 0.00 0.36 0.36 81 1011.3
20260504045503 52 196 3.0 6.0 0.00 0.36 0.36 81 1011.5
20260504045003 52 187 3.0 6.0 0.00 0.36 0.36 81 1011.4
20260504044524 52 189 3.0 6.0 0.00 0.36 0.36 81 1011.5
20260504044024 52 195 2.0 4.0 0.00 0.36 0.36 80 1011.2
20260504043503 53 192 2.0 3.0 0.00 0.36 0.36 80 1011.4
20260504043003 53 185 2.0 4.0 0.00 0.36 0.36 80 1011.5
20260504042524 53 188 2.0 4.0 0.00 0.36 0.36 80 1011.3
20260504042003 52 182 2.0 3.0 0.00 0.36 0.36 81 1011.6